| time (UTC) | temp F | wind direction | speed MPH | gust MPH | rain 1hr in | rain 24hr in | rain mn in | humidity % | barometer mb |
| 20260903220026 | 95 | 270 | 1.0 | 1.0 | 0.00 | 0.00 | 0.00 | 51 | 1007.7 |
| 20260903215411 | 94 | 338 | 2.0 | 2.0 | 0.00 | 0.00 | 0.00 | 49 | 1007.7 |
| 20260903214833 | 96 | 338 | 0.0 | 0.0 | 0.00 | 0.00 | 0.00 | 55 | 1007.7 |
| 20260903214212 | 98 | 338 | 0.0 | 0.0 | 0.00 | 0.00 | 0.00 | 48 | 1007.7 |
| 20260903213610 | 96 | 22 | 1.0 | 1.0 | 0.00 | 0.00 | 0.00 | 46 | 1007.7 |
| 20260903213019 | 95 | 22 | 2.0 | 2.0 | 0.00 | 0.00 | 0.00 | 50 | 1007.7 |
| 20260903212434 | 96 | 225 | 1.0 | 1.0 | 0.00 | 0.00 | 0.00 | 52 | 1007.7 |
| 20260903211834 | 96 | 248 | 0.0 | 0.0 | 0.00 | 0.00 | 0.00 | 48 | 1007.7 |
| 20260903211243 | 96 | 248 | 0.0 | 0.0 | 0.00 | 0.00 | 0.00 | 50 | 1007.7 |
| 20260903210618 | 96 | 248 | 1.0 | 1.0 | 0.00 | 0.00 | 0.00 | 49 | 1007.7 |
| 20260903210020 | 97 | 248 | 4.0 | 5.0 | 0.00 | 0.00 | 0.00 | 48 | 1007.7 |
| 20260903205411 | 96 | 22 | 2.0 | 2.0 | 0.00 | 0.00 | 0.00 | 47 | 1007.7 |
| 20260903204849 | 96 | 225 | 1.0 | 1.0 | 0.00 | 0.00 | 0.00 | 50 | 1007.7 |
| 20260903204243 | 97 | 158 | 0.0 | 0.0 | 0.00 | 0.00 | 0.00 | 46 | 1007.7 |
| 20260903203628 | 97 | 45 | 0.0 | 0.0 | 0.00 | 0.00 | 0.00 | 49 | 1007.7 |
| 20260903203045 | 96 | 22 | 2.0 | 2.0 | 0.00 | 0.00 | 0.00 | 48 | 1007.7 |
| 20260903202421 | 95 | 90 | 0.0 | 0.0 | 0.00 | 0.00 | 0.00 | 51 | 1007.7 |
| 20260903201833 | 95 | 90 | 2.0 | 2.0 | 0.00 | 0.00 | 0.00 | 50 | 1007.7 |
| 20260903201246 | 96 | 90 | 2.0 | 2.0 | 0.00 | 0.00 | 0.00 | 48 | 1007.7 |
| 20260903200635 | 95 | 45 | 2.0 | 2.0 | 0.00 | 0.00 | 0.00 | 49 | 1007.7 |
| 20260903200012 | 94 | 68 | 0.0 | 0.0 | 0.00 | 0.00 | 0.00 | 48 | 1007.7 |
| 20260903195434 | 94 | 90 | 2.0 | 2.0 | 0.00 | 0.00 | 0.00 | 49 | 1007.7 |
| 20260903194843 | 94 | 90 | 3.0 | 4.0 | 0.00 | 0.00 | 0.00 | 52 | 1007.7 |
| 20260903194213 | 94 | 90 | 3.0 | 3.0 | 0.00 | 0.00 | 0.00 | 51 | 1008.8 |
| 20260903193639 | 94 | 90 | 3.0 | 3.0 | 0.00 | 0.00 | 0.00 | 53 | 1008.8 |
| 20260903193025 | 94 | 112 | 2.0 | 2.0 | 0.00 | 0.00 | 0.00 | 46 | 1008.8 |
| 20260903192439 | 95 | 112 | 2.0 | 2.0 | 0.00 | 0.00 | 0.00 | 44 | 1008.8 |
| 20260903191821 | 96 | 248 | 6.0 | 6.0 | 0.00 | 0.00 | 0.00 | 44 | 1008.8 |
| 20260903191212 | 96 | 248 | 0.0 | 0.0 | 0.00 | 0.00 | 0.00 | 42 | 1008.8 |
| 20260903190628 | 95 | 112 | 2.0 | 2.0 | 0.00 | 0.00 | 0.00 | 43 | 1008.8 |
| 20260903190031 | 96 | 112 | 0.0 | 0.0 | 0.00 | 0.00 | 0.00 | 43 | 1008.8 |
| 20260903185438 | 97 | 270 | 1.0 | 1.0 | 0.00 | 0.00 | 0.00 | 42 | 1008.8 |
| 20260903184239 | 96 | 22 | 2.0 | 2.0 | 0.00 | 0.00 | 0.00 | 41 | 1008.8 |
| 20260903183621 | 96 | 248 | 2.0 | 2.0 | 0.00 | 0.00 | 0.00 | 44 | 1008.8 |
| 20260903182434 | 97 | 248 | 4.0 | 4.0 | 0.00 | 0.00 | 0.00 | 42 | 1008.8 |
| 20260903181836 | 97 | 292 | 2.0 | 2.0 | 0.00 | 0.00 | 0.00 | 42 | 1008.8 |
| 20260903181249 | 96 | 248 | 2.0 | 2.0 | 0.00 | 0.00 | 0.00 | 43 | 1008.8 |
| 20260903180610 | 95 | 248 | 2.0 | 2.0 | 0.00 | 0.00 | 0.00 | 46 | 1008.8 |
| 20260903180039 | 93 | 248 | 0.0 | 0.0 | 0.00 | 0.00 | 0.00 | 48 | 1009.8 |
| 20260903175445 | 92 | 248 | 2.0 | 2.0 | 0.00 | 0.00 | 0.00 | 52 | 1009.8 |
| 20260903174825 | 92 | 248 | 6.0 | 6.0 | 0.00 | 0.00 | 0.00 | 49 | 1009.8 |
| 20260903174239 | 93 | 68 | 2.0 | 2.0 | 0.00 | 0.00 | 0.00 | 55 | 1009.8 |
| 20260903173015 | 95 | 180 | 1.0 | 1.0 | 0.00 | 0.00 | 0.00 | 48 | 1009.8 |
| 20260903172433 | 96 | 248 | 5.0 | 5.0 | 0.00 | 0.00 | 0.00 | 49 | 1009.8 |
| 20260903171826 | 96 | 68 | 2.0 | 2.0 | 0.00 | 0.00 | 0.00 | 47 | 1009.8 |
| 20260903170014 | 94 | 248 | 4.0 | 5.0 | 0.00 | 0.00 | 0.00 | 49 | 1009.8 |
| 20260903165428 | 94 | 225 | 2.0 | 2.0 | 0.00 | 0.00 | 0.00 | 49 | 1009.8 |
| 20260903164826 | 95 | 248 | 3.0 | 4.0 | 0.00 | 0.00 | 0.00 | 50 | 1009.8 |
| 20260903164224 | 95 | 202 | 0.0 | 0.0 | 0.00 | 0.00 | 0.00 | 51 | 1009.8 |
| 20260903163636 | 94 | 68 | 0.0 | 0.0 | 0.00 | 0.00 | 0.00 | 50 | 1009.8 |
| 20260903163045 | 94 | 68 | 0.0 | 0.0 | 0.00 | 0.00 | 0.00 | 51 | 1009.8 |
| 20260903162415 | 92 | 68 | 0.0 | 0.0 | 0.00 | 0.00 | 0.00 | 56 | 1009.8 |
| 20260903161805 | 91 | 68 | 2.0 | 2.0 | 0.00 | 0.00 | 0.00 | 54 | 1009.8 |
| 20260903161249 | 91 | 68 | 2.0 | 2.0 | 0.00 | 0.00 | 0.00 | 59 | 1009.8 |
| 20260903155408 | 91 | 68 | 2.0 | 2.0 | 0.00 | 0.00 | 0.00 | 61 | 1010.8 |
| 20260903154825 | 91 | 68 | 0.0 | 0.0 | 0.00 | 0.00 | 0.00 | 63 | 1010.8 |
| 20260903154226 | 90 | 68 | 1.0 | 1.0 | 0.00 | 0.00 | 0.00 | 59 | 1010.8 |
| 20260903153632 | 90 | 68 | 1.0 | 1.0 | 0.00 | 0.00 | 0.00 | 62 | 1010.8 |
| 20260903153007 | 90 | 68 | 2.0 | 2.0 | 0.00 | 0.00 | 0.00 | 62 | 1010.8 |
| 20260903152413 | 90 | 68 | 2.0 | 2.0 | 0.00 | 0.00 | 0.00 | 61 | 1010.8 |
| 20260903151835 | 89 | 68 | 0.0 | 0.0 | 0.00 | 0.00 | 0.00 | 62 | 1010.8 |
| 20260903151219 | 88 | 68 | 2.0 | 2.0 | 0.00 | 0.00 | 0.00 | 64 | 1010.8 |
| 20260903150626 | 88 | 68 | 2.0 | 2.0 | 0.00 | 0.00 | 0.00 | 65 | 1010.8 |
| 20260903150044 | 88 | 68 | 1.0 | 1.0 | 0.00 | 0.00 | 0.00 | 64 | 1010.8 |
| 20260903145437 | 88 | 68 | 1.0 | 1.0 | 0.00 | 0.00 | 0.00 | 66 | 1010.8 |
| 20260903144818 | 89 | 45 | 1.0 | 1.0 | 0.00 | 0.00 | 0.00 | 65 | 1010.8 |
| 20260903144213 | 88 | 45 | 0.0 | 0.0 | 0.00 | 0.00 | 0.00 | 60 | 1010.8 |
| 20260903143651 | 86 | 45 | 0.0 | 0.0 | 0.00 | 0.00 | 0.00 | 62 | 1010.8 |
| 20260903143033 | 84 | 45 | 0.0 | 0.0 | 0.00 | 0.00 | 0.00 | 65 | 1010.8 |
| 20260903142447 | 83 | 45 | 0.0 | 0.0 | 0.00 | 0.00 | 0.00 | 68 | 1010.8 |
| 20260903141841 | 83 | 45 | 2.0 | 2.0 | 0.00 | 0.00 | 0.00 | 69 | 1010.8 |
| 20260903141221 | 82 | 45 | 1.0 | 1.0 | 0.00 | 0.00 | 0.00 | 70 | 1010.8 |
| 20260903140647 | 82 | 22 | 1.0 | 1.0 | 0.00 | 0.00 | 0.00 | 72 | 1010.8 |
| 20260903140010 | 79 | 292 | 1.0 | 1.0 | 0.00 | 0.00 | 0.00 | 71 | 1010.8 |
| 20260903135422 | 77 | 292 | 0.0 | 0.0 | 0.00 | 0.00 | 0.00 | 75 | 1010.8 |
| 20260903134229 | 79 | 292 | 2.0 | 2.0 | 0.00 | 0.00 | 0.00 | 77 | 1010.8 |
| 20260903133643 | 81 | 292 | 2.0 | 2.0 | 0.00 | 0.00 | 0.00 | 73 | 1010.8 |
| 20260903133012 | 81 | 292 | 0.0 | 0.0 | 0.00 | 0.00 | 0.00 | 67 | 1010.8 |
| 20260903132442 | 81 | 292 | 1.0 | 1.0 | 0.00 | 0.00 | 0.00 | 69 | 1010.8 |
| 20260903131849 | 80 | 292 | 0.0 | 0.0 | 0.00 | 0.00 | 0.00 | 69 | 1010.8 |
| 20260903131223 | 77 | 292 | 0.0 | 0.0 | 0.00 | 0.00 | 0.00 | 73 | 1011.8 |
| 20260903130610 | 74 | 292 | 0.0 | 0.0 | 0.00 | 0.00 | 0.00 | 77 | 1011.8 |
| 20260903130019 | 72 | 270 | 0.0 | 0.0 | 0.00 | 0.00 | 0.00 | 85 | 1011.8 |
| 20260903125448 | 71 | 270 | 1.0 | 1.0 | 0.00 | 0.00 | 0.00 | 89 | 1011.8 |
| 20260903124840 | 71 | 270 | 0.0 | 0.0 | 0.00 | 0.00 | 0.00 | 88 | 1011.8 |
| 20260903123623 | 70 | 270 | 2.0 | 2.0 | 0.00 | 0.00 | 0.00 | 90 | 1011.8 |
| 20260903123015 | 69 | 270 | 0.0 | 0.0 | 0.00 | 0.00 | 0.00 | 91 | 1011.8 |
| 20260903122448 | 69 | 270 | 0.0 | 0.0 | 0.00 | 0.00 | 0.00 | 91 | 1011.8 |
| 20260903121846 | 69 | 270 | 1.0 | 1.0 | 0.00 | 0.00 | 0.00 | 91 | 1011.8 |
| 20260903121235 | 69 | 270 | 0.0 | 0.0 | 0.00 | 0.00 | 0.00 | 91 | 1011.8 |
| 20260903120606 | 69 | 270 | 0.0 | 0.0 | 0.00 | 0.00 | 0.00 | 91 | 1011.8 |
| 20260903115439 | 69 | 270 | 0.0 | 0.0 | 0.00 | 0.00 | 0.00 | 92 | 1011.8 |
| 20260903114815 | 69 | 248 | 0.0 | 0.0 | 0.00 | 0.00 | 0.00 | 92 | 1011.8 |
| 20260903114218 | 68 | 248 | 0.0 | 0.0 | 0.00 | 0.00 | 0.00 | 92 | 1011.8 |
| 20260903113613 | 69 | 248 | 0.0 | 0.0 | 0.00 | 0.00 | 0.00 | 92 | 1011.8 |
| 20260903113040 | 69 | 248 | 1.0 | 1.0 | 0.00 | 0.00 | 0.00 | 92 | 1011.8 |
| 20260903112442 | 68 | 248 | 1.0 | 1.0 | 0.00 | 0.00 | 0.00 | 92 | 1010.8 |
| 20260903111840 | 69 | 248 | 1.0 | 1.0 | 0.00 | 0.00 | 0.00 | 92 | 1010.8 |
| 20260903111238 | 69 | 248 | 2.0 | 2.0 | 0.00 | 0.00 | 0.00 | 92 | 1010.8 |
| 20260903110016 | 69 | 248 | 0.0 | 0.0 | 0.00 | 0.00 | 0.00 | 92 | 1010.8 |
| 20260903104807 | 69 | 270 | 0.0 | 0.0 | 0.00 | 0.00 | 0.00 | 92 | 1010.8 |
| 20260903103014 | 69 | 270 | 1.0 | 1.0 | 0.00 | 0.00 | 0.00 | 92 | 1010.8 |
| 20260903102426 | 69 | 270 | 2.0 | 2.0 | 0.00 | 0.00 | 0.00 | 92 | 1009.8 |
| 20260903101226 | 69 | 270 | 0.0 | 0.0 | 0.00 | 0.00 | 0.00 | 93 | 1010.8 |
| 20260903100036 | 69 | 270 | 0.0 | 0.0 | 0.00 | 0.00 | 0.00 | 92 | 1010.8 |
| 20260903095419 | 70 | 270 | 0.0 | 0.0 | 0.00 | 0.00 | 0.00 | 92 | 1010.8 |
| 20260903094811 | 70 | 270 | 0.0 | 0.0 | 0.00 | 0.00 | 0.00 | 92 | 1010.8 |
| 20260903093017 | 70 | 270 | 0.0 | 0.0 | 0.00 | 0.00 | 0.00 | 92 | 1010.8 |
| 20260903092413 | 70 | 270 | 0.0 | 0.0 | 0.00 | 0.00 | 0.00 | 93 | 1009.8 |
| 20260903091837 | 70 | 270 | 0.0 | 0.0 | 0.00 | 0.00 | 0.00 | 93 | 1009.8 |
| 20260903091237 | 70 | 270 | 0.0 | 0.0 | 0.00 | 0.00 | 0.00 | 93 | 1009.8 |
| 20260903090638 | 70 | 270 | 0.0 | 0.0 | 0.00 | 0.00 | 0.00 | 93 | 1009.8 |
| 20260903090044 | 70 | 270 | 2.0 | 2.0 | 0.00 | 0.00 | 0.00 | 92 | 1009.8 |
| 20260903085441 | 70 | 292 | 2.0 | 2.0 | 0.00 | 0.00 | 0.00 | 92 | 1009.8 |
| 20260903084817 | 70 | 292 | 0.0 | 0.0 | 0.00 | 0.00 | 0.00 | 92 | 1009.8 |
| 20260903084237 | 70 | 292 | 0.0 | 0.0 | 0.00 | 0.00 | 0.00 | 92 | 1009.8 |
| 20260903083050 | 70 | 292 | 0.0 | 0.0 | 0.00 | 0.00 | 0.00 | 92 | 1009.8 |
| 20260903082447 | 70 | 292 | 0.0 | 0.0 | 0.00 | 0.00 | 0.00 | 92 | 1009.8 |
| 20260903081849 | 70 | 292 | 0.0 | 0.0 | 0.00 | 0.00 | 0.00 | 92 | 1009.8 |
| 20260903081206 | 70 | 292 | 0.0 | 0.0 | 0.00 | 0.00 | 0.00 | 92 | 1010.8 |
| 20260903080613 | 70 | 292 | 0.0 | 0.0 | 0.00 | 0.00 | 0.00 | 92 | 1010.8 |
| 20260903080026 | 71 | 292 | 0.0 | 0.0 | 0.00 | 0.00 | 0.00 | 92 | 1010.8 |
| 20260903075430 | 71 | 292 | 0.0 | 0.0 | 0.00 | 0.00 | 0.00 | 92 | 1009.8 |
| 20260903074832 | 71 | 292 | 0.0 | 0.0 | 0.00 | 0.00 | 0.00 | 92 | 1009.8 |
| 20260903074223 | 70 | 292 | 0.0 | 0.0 | 0.00 | 0.00 | 0.00 | 92 | 1009.8 |
| 20260903073605 | 70 | 292 | 1.0 | 1.0 | 0.00 | 0.00 | 0.00 | 92 | 1009.8 |
| 20260903072436 | 71 | 292 | 2.0 | 2.0 | 0.00 | 0.00 | 0.00 | 92 | 1010.8 |
| 20260903071845 | 71 | 292 | 0.0 | 0.0 | 0.00 | 0.00 | 0.00 | 92 | 1010.8 |
| 20260903071242 | 71 | 292 | 1.0 | 1.0 | 0.00 | 0.00 | 0.00 | 91 | 1010.8 |
| 20260903070626 | 72 | 292 | 2.0 | 2.0 | 0.00 | 0.00 | 0.00 | 91 | 1010.8 |
| 20260903065443 | 72 | 292 | 0.0 | 0.0 | 0.00 | 0.00 | 0.00 | 91 | 1010.8 |
| 20260903064840 | 72 | 292 | 0.0 | 0.0 | 0.00 | 0.00 | 0.00 | 91 | 1010.8 |
| 20260903064210 | 72 | 292 | 0.0 | 0.0 | 0.00 | 0.00 | 0.00 | 91 | 1010.8 |
| 20260903063612 | 72 | 292 | 0.0 | 0.0 | 0.00 | 0.00 | 0.00 | 91 | 1010.8 |
| 20260903063035 | 72 | 292 | 1.0 | 1.0 | 0.00 | 0.00 | 0.00 | 91 | 1010.8 |
| 20260903062413 | 72 | 0 | 1.0 | 1.0 | 0.00 | 0.00 | 0.00 | 91 | 1009.8 |
| 20260903061826 | 72 | 0 | 0.0 | 0.0 | 0.00 | 0.00 | 0.00 | 91 | 1009.8 |
| 20260903061224 | 73 | 0 | 0.0 | 0.0 | 0.00 | 0.00 | 0.00 | 90 | 1009.8 |
| 20260903060643 | 72 | 0 | 0.0 | 0.0 | 0.00 | 0.00 | 0.00 | 90 | 1009.8 |
| 20260903060022 | 72 | 22 | 0.0 | 0.0 | 0.00 | 0.00 | 0.00 | 91 | 1009.8 |
| 20260903055421 | 72 | 22 | 0.0 | 0.0 | 0.00 | 0.00 | 0.00 | 90 | 1010.8 |
| 20260903054841 | 72 | 45 | 0.0 | 0.0 | 0.00 | 0.00 | 0.00 | 91 | 1010.8 |
| 20260903054241 | 72 | 45 | 0.0 | 0.0 | 0.00 | 0.00 | 0.00 | 91 | 1009.8 |
| 20260903053630 | 73 | 45 | 0.0 | 0.0 | 0.00 | 0.00 | 0.00 | 91 | 1009.8 |
| 20260903053045 | 72 | 45 | 0.0 | 0.0 | 0.00 | 0.00 | 0.00 | 91 | 1009.8 |
| 20260903052414 | 72 | 45 | 0.0 | 0.0 | 0.00 | 0.00 | 0.00 | 91 | 1010.8 |
| 20260903051837 | 72 | 45 | 0.0 | 0.0 | 0.00 | 0.00 | 0.00 | 91 | 1010.8 |
| 20260903051246 | 72 | 45 | 0.0 | 0.0 | 0.00 | 0.00 | 0.00 | 92 | 1009.8 |
| 20260903050044 | 72 | 68 | 0.0 | 0.0 | 0.00 | 0.00 | 0.00 | 92 | 1009.8 |
| 20260903045423 | 72 | 68 | 1.0 | 1.0 | 0.00 | 0.00 | 0.00 | 92 | 1009.8 |
| 20260903044820 | 72 | 68 | 3.0 | 3.0 | 0.00 | 0.00 | 0.00 | 92 | 1009.8 |
| 20260903044241 | 72 | 90 | 2.0 | 2.0 | 0.00 | 0.00 | 0.00 | 92 | 1009.8 |
| 20260903043608 | 72 | 292 | 0.0 | 0.0 | 0.00 | 0.00 | 0.00 | 92 | 1009.8 |
| 20260903042436 | 72 | 292 | 0.0 | 0.0 | 0.00 | 0.00 | 0.00 | 93 | 1009.8 |
| 20260903041809 | 72 | 292 | 0.0 | 0.0 | 0.00 | 0.00 | 0.00 | 93 | 1009.8 |
| 20260903040636 | 72 | 292 | 0.0 | 0.0 | 0.00 | 0.00 | 0.00 | 92 | 1010.8 |
| 20260903033647 | 73 | 292 | 0.0 | 0.0 | 0.00 | 0.00 | 0.00 | 92 | 1010.8 |
| 20260903033021 | 73 | 292 | 0.0 | 0.0 | 0.00 | 0.00 | 0.00 | 92 | 1010.8 |
| 20260903032429 | 73 | 292 | 0.0 | 0.0 | 0.00 | 0.00 | 0.00 | 92 | 1010.8 |
| 20260903031847 | 73 | 292 | 0.0 | 0.0 | 0.00 | 0.00 | 0.00 | 92 | 1010.8 |
| 20260903031227 | 73 | 292 | 0.0 | 0.0 | 0.00 | 0.00 | 0.00 | 91 | 1010.8 |
| 20260903030031 | 73 | 292 | 0.0 | 0.0 | 0.00 | 0.00 | 0.00 | 91 | 1010.8 |
| 20260903025421 | 73 | 292 | 0.0 | 0.0 | 0.00 | 0.00 | 0.00 | 92 | 1010.8 |
| 20260903024819 | 73 | 292 | 0.0 | 0.0 | 0.00 | 0.00 | 0.00 | 91 | 1010.8 |
| 20260903024240 | 73 | 292 | 0.0 | 0.0 | 0.00 | 0.00 | 0.00 | 91 | 1010.8 |
| 20260903023031 | 74 | 292 | 0.0 | 0.0 | 0.00 | 0.00 | 0.00 | 91 | 1010.8 |
| 20260903022413 | 74 | 292 | 0.0 | 0.0 | 0.00 | 0.00 | 0.00 | 90 | 1010.8 |
| 20260903021832 | 74 | 292 | 0.0 | 0.0 | 0.00 | 0.00 | 0.00 | 90 | 1010.8 |
| 20260903021225 | 74 | 292 | 0.0 | 0.0 | 0.00 | 0.00 | 0.00 | 90 | 1010.8 |
| 20260903020614 | 74 | 292 | 0.0 | 0.0 | 0.00 | 0.00 | 0.00 | 90 | 1010.8 |
| 20260903020031 | 74 | 292 | 0.0 | 0.0 | 0.00 | 0.00 | 0.00 | 90 | 1010.8 |
| 20260903014825 | 75 | 292 | 0.0 | 0.0 | 0.00 | 0.00 | 0.00 | 89 | 1010.8 |
| 20260903013041 | 76 | 292 | 0.0 | 0.0 | 0.00 | 0.00 | 0.00 | 87 | 1010.8 |
| 20260903012417 | 76 | 292 | 0.0 | 0.0 | 0.00 | 0.00 | 0.00 | 85 | 1009.8 |
| 20260903011247 | 76 | 292 | 0.0 | 0.0 | 0.00 | 0.00 | 0.00 | 86 | 1009.8 |
| 20260903010631 | 76 | 292 | 0.0 | 0.0 | 0.00 | 0.00 | 0.00 | 85 | 1009.8 |
| 20260903010042 | 76 | 292 | 0.0 | 0.0 | 0.00 | 0.00 | 0.00 | 86 | 1009.8 |
| 20260903005428 | 76 | 292 | 0.0 | 0.0 | 0.00 | 0.00 | 0.00 | 86 | 1009.8 |
| 20260903004849 | 77 | 292 | 0.0 | 0.0 | 0.00 | 0.00 | 0.00 | 86 | 1009.8 |
| 20260903004227 | 77 | 292 | 0.0 | 0.0 | 0.00 | 0.00 | 0.00 | 84 | 1009.8 |
| 20260903003640 | 78 | 292 | 0.0 | 0.0 | 0.00 | 0.00 | 0.00 | 83 | 1009.8 |
| 20260903002418 | 79 | 292 | 1.0 | 1.0 | 0.00 | 0.00 | 0.00 | 81 | 1009.8 |
| 20260903001845 | 79 | 292 | 0.0 | 0.0 | 0.00 | 0.00 | 0.00 | 80 | 1009.8 |
| 20260903001207 | 79 | 292 | 0.0 | 0.0 | 0.00 | 0.00 | 0.00 | 81 | 1009.8 |
| 20260903000622 | 80 | 292 | 0.0 | 0.0 | 0.00 | 0.00 | 0.00 | 79 | 1009.8 |
| 20260903000030 | 79 | 292 | 0.0 | 0.0 | 0.00 | 0.00 | 0.00 | 79 | 1009.8 |
| 20260902235426 | 80 | 292 | 1.0 | 1.0 | 0.00 | 0.00 | 0.00 | 79 | 1009.8 |
| 20260902234827 | 81 | 292 | 0.0 | 0.0 | 0.00 | 0.00 | 0.00 | 78 | 1009.8 |
| 20260902234231 | 82 | 292 | 0.0 | 0.0 | 0.00 | 0.00 | 0.00 | 75 | 1009.8 |
| 20260902232448 | 82 | 292 | 0.0 | 0.0 | 0.00 | 0.00 | 0.00 | 73 | 1009.8 |
| 20260902231807 | 82 | 292 | 0.0 | 0.0 | 0.00 | 0.00 | 0.00 | 72 | 1009.8 |
| 20260902230636 | 84 | 292 | 0.0 | 0.0 | 0.00 | 0.00 | 0.00 | 69 | 1009.8 |
| 20260902225422 | 85 | 292 | 0.0 | 0.0 | 0.00 | 0.00 | 0.00 | 68 | 1009.8 |
| 20260902224832 | 86 | 292 | 0.0 | 0.0 | 0.00 | 0.00 | 0.00 | 65 | 1009.8 |
| 20260902224238 | 89 | 292 | 0.0 | 0.0 | 0.00 | 0.00 | 0.00 | 62 | 1009.8 |
| 20260902223649 | 92 | 292 | 0.0 | 0.0 | 0.00 | 0.00 | 0.00 | 56 | 1009.8 |
| 20260902223034 | 94 | 292 | 0.0 | 0.0 | 0.00 | 0.00 | 0.00 | 52 | 1009.8 |
| 20260902222413 | 93 | 292 | 1.0 | 1.0 | 0.00 | 0.00 | 0.00 | 51 | 1009.8 |
| 20260902221814 | 94 | 292 | 1.0 | 1.0 | 0.00 | 0.00 | 0.00 | 53 | 1009.8 |
| 20260902221219 | 95 | 22 | 0.0 | 0.0 | 0.00 | 0.00 | 0.00 | 49 | 1009.8 |
| 20260902220629 | 92 | 22 | 0.0 | 0.0 | 0.00 | 0.00 | 0.00 | 50 | 1009.8 |